This is the latest recevied weather packets stored in our database for station/object KD1KE. If no packets are shown the sender has not sent any weather packets the latest 1 day(s).
| Time | Temp. | Humidity | Pressure | Rain* | Wind** | Luminosity | Snow |
|---|---|---|---|---|---|---|---|
| 1778005163 | 23.33° C | 54% | 1004.4 hPa | 0 mm | 1.34 m/s, 227° | - | - |
| 1778005120 | 23.33° C | 54% | 1004.4 hPa | 0 mm | 1.34 m/s, 227° | - | - |
| 1778004790 | 22.78° C | 54% | 1004.4 hPa | 0 mm | 1.79 m/s, 229° | - | - |
| 1778004579 | 22.78° C | 55% | 1004.3 hPa | 0 mm | 1.79 m/s, 234° | - | - |
| 1778004131 | 22.78° C | 54% | 1004.4 hPa | 0 mm | 1.79 m/s, 233° | - | - |
| 1778004038 | 22.22° C | 55% | 1004.4 hPa | 0 mm | 1.79 m/s, 235° | - | - |
| 1778003501 | 22.22° C | 54% | 1004.6 hPa | 0 mm | 1.79 m/s, 249° | - | - |
| 1778003469 | 22.22° C | 54% | 1004.6 hPa | 0 mm | 1.79 m/s, 249° | - | - |
| 1778002959 | 22.22° C | 55% | 1004.7 hPa | 0 mm | 1.79 m/s, 241° | - | - |
| 1778002811 | 22.22° C | 55% | 1004.7 hPa | 0 mm | 1.79 m/s, 236° | - | - |
| 1778002420 | 22.22° C | 56% | 1004.9 hPa | 0 mm | 1.34 m/s, 225° | - | - |
| 1778002150 | 21.67° C | 56% | 1005 hPa | 0 mm | 1.34 m/s, 237° | - | - |
| 1778001879 | 21.67° C | 55% | 1005.1 hPa | 0 mm | 1.34 m/s, 242° | - | - |
| 1778001491 | 21.67° C | 56% | 1005.2 hPa | 0 mm | 1.34 m/s, 237° | - | - |
| 1778001338 | 21.67° C | 55% | 1005.3 hPa | 0 mm | 1.34 m/s, 233° | - | - |
| 1778000830 | 22.22° C | 56% | 1005.2 hPa | 0 mm | 1.79 m/s, 230° | - | - |
| 1778000797 | 22.22° C | 55% | 1005.2 hPa | 0 mm | 1.34 m/s, 237° | - | - |
| 1778000259 | 22.22° C | 55% | 1005.4 hPa | 0 mm | 1.34 m/s, 239° | - | - |
| 1778000170 | 22.22° C | 54% | 1005.3 hPa | 0 mm | 1.34 m/s, 236° | - | - |
| 1777999718 | 22.22° C | 54% | 1005.5 hPa | 0 mm | 0.89 m/s, 233° | - | - |
| 1777999510 | 22.22° C | 55% | 1005.5 hPa | 0 mm | 1.34 m/s, 221° | - | - |
| 1777999179 | 22.22° C | 56% | 1005.5 hPa | 0 mm | 1.34 m/s, 226° | - | - |
| 1777998850 | 21.67° C | 54% | 1005.6 hPa | 0 mm | 0.89 m/s, 240° | - | - |
| 1777998638 | 22.22° C | 55% | 1005.6 hPa | 0 mm | 0.89 m/s, 242° | - | - |
| 1777998190 | 21.67° C | 56% | 1005.8 hPa | 0 mm | 1.34 m/s, 231° | - | - |
* Rain latest hour (hover to see other rain measurements)
** Current wind speed in m/s (hover to see current wind gust speed)